Starlink 32467

operational
NORAD ID: 61713 Int'l Des: 2024-196 Owner: SPXS Country: US Constellation: starlink
LEOCIRCULAR

About Starlink 32467

Description loading...

Live Position

Loading 3D Globe...

Upcoming Passes

Altitude History

Altitude vs Time

uPlot chart will show altitude changes over time

Two-Line Element Set

1 61713U 24196G 25350.09846640 .00003804 00000-0 14050-3 0 9990
2 61713 53.1565 129.9536 0001156 104.9313 255.1815 15.30198021 64359
Epoch: Dec 16, 2025 • Age: 18 hours

Current Status

Altitude 485.1 km
Velocity 7.62 km/s
Sub-Earth Point -31.18°S, 60.96°W
Launch Date Oct 30, 2024
Age 1.1 years
Type internet

Technical Details

Classification Payload
Mass 730.00 kg
Dry Mass 700.00 kg
Total Mass 730.00 kg
Length 0.30 m
Diameter 4.10 m
Span 29.00 m
Shape Box + pan
Manufacturer SPXS
Bus Type Starlink V2M
Phase Status In Orbit
Owner/State SPXS/US

Large Constellations

Loading constellations...